www.pogodaiklimat.ru

Погода и климат >> Архив погоды >> Германия >> Аэропорт Франкфурт-Хан


ПОГОДА в Аэропорту Франкфурт-Хан

  • Прогноз погоды в Аэропорту Франкфурт-Хан
  • Монитор погоды в Аэропорту Франкфурт-Хан

АРХИВ ПОГОДЫ в Аэропорту Франкфурт-Хан

Время (UTC), дата Ветер
(напр.,м/с)
 
Видим.   Явления Облачность Т
(С)
Тd
(С)
f
(%)
Тe
(С)
Тes
(С)
Комфортность P
(гПа)
Po
(гПа)
Тmin
(С)
Tmax
(С)
R
(мм)
R24
(мм)
S
(см)
13 9.06 ЮВ 3-5
{7}
н/о 4/0
[]
+18.2 +6.9 48 +18 +29 1020.0 962.1
14 9.06 В 4-7
{7}
н/о 6/0
[]
+18.5 +7.9 50 +19 +25 1019.3 961.5
15 9.06 В 3-5
{7}
н/о 5/0
[]
+18.5 +8.1 51 +19 +25 1018.8 961.1
16 9.06 В 3-5
{6}
н/о 1/0
[]
+18.5 +8.4 52 +19 +24 1018.0 960.3
17 9.06 В 3-5
{5}
н/о 10/0
[]
+18.4 +9.1 55 +19 +20 1017.4 959.7
18 9.06 В 2 н/о 10/0 2000 м
[]
+18.1 +9.5 57 +19 +19 1016.9 959.2 +10.3 +18.9
19 9.06 В 3-3
{3}
н/о 6/0 2000 м
[]
+17.3 +9.9 62 +17 +17 1016.4 958.6
20 9.06 С 1-1
{3}
н/о 10/10 1440 м
[]
+16.1 +10.9 71 +17 +17 1016.7 958.7
21 9.06 СВ 1 н/о 10/10 1380 м
[]
+16.0 +10.4 69 +17 +17 1016.6 958.5
22 9.06 СВ 1-2
{3}
н/о 9/9 1380 м
[]
+15.3 +10.1 71 +16 +16 1016.2 958.0
23 9.06 СВ 1-1
{2}
н/о 9/9 1500 м
[]
+15.5 +10.0 70 +16 +16 1015.8 957.7
00 10.06 ЮЗ 1-1
{3}
н/о 8/8 1500 м
[]
+15.6 +9.9 69 +16 +16 1015.5 957.4
01 10.06 Ю 3-3
{3}
н/о 10/0
[]
+14.2 +9.9 75 +13 +13 1015.3 957.0
02 10.06 ЮЗ 3-4
{4}
н/о 9/0
[]
+14.4 +10.0 75 +14 +14 1014.9 956.6
03 10.06 ЮВ 3-4
{4}
н/о 10/0
[]
+13.6 +10.0 79 +12 +12 1014.7 956.3
04 10.06 ЮЗ 2-4
{4}
н/о 10/0
[]
+14.0 +9.9 76 +14 +14 1014.5 956.2
05 10.06 ЮЗ 4-6
{6}
н/о ясно +13.6 +11.2 85 +12 +13 1014.4 956.0
06 10.06 ЮЗ 4 н/о 9/9 1000 м
[]
+14.8 +11.3 80 +14 +14 1014.7 956.5 +12.9 +18.2
07 10.06 ЮЗ 4-7
{7}
н/о 8/0 2000 м
[]
+14.9 +11.6 81 +14 +16 1014.5 956.4
08 10.06 З 3-5
{6}
н/о 10/0
[]
+15.4 +11.7 79 +15 +19 1014.1 956.1
09 10.06 Ю 3 н/о 6/6 570 м
[]
+16.6 +11.7 73 +16 +21 1013.5 955.8
10 10.06 Ю 3-5
{9}
н/о 5/5 630 м
[]
+18.1 +12.1 68 +18 +25 1012.7 955.3
11 10.06 ЮЗ 3-4
{6}
н/о 9/9 800 м
[]
+18.1 +11.4 65 +18 +20 1012.3 954.9
12 10.06 ЮЗ 2 н/о 9/9 800 м
[]
+18.1 +11.9 67 +19 +21 1011.7 954.4
13 10.06 З 2-3
{5}
н/о 9/9 840 м
[]
+18.6 +12.6 68 +20 +21 1011.0 953.8
14 10.06 Ю 3-5
{5}
н/о 9/9 900 м
[]
+18.6 +11.7 64 +19 +20 1010.7 953.5
15 10.06 Ю 5-7
{8}
н/о 4/4 1000 м
[]
+18.7 +11.4 63 +19 +22 1010.5 953.3
16 10.06 Ю 5-7
{8}
н/о 9/9 840 м
[]
+18.3 +11.6 65 +18 +19 1010.9 953.6
17 10.06 ЮВ 4-5
{8}
н/о 10/0 2000 м
[]
+17.3 +12.1 71 +17 +18 1010.8 953.4
18 10.06 Ю 4 н/о 9/9 800 м
[]
+17.0 +11.6 70 +17 +17 1010.6 953.1 +14.7 +19.6
19 10.06 З 3-4
{6}
н/о 10/10 660 м
[]
+14.9 +11.9 82 +14 +14 1011.2 953.3
20 10.06 ЮЗ 3-6
{7}
н/о слаб. морось с дождем 9/9 300 м
[]
+13.1 +12.3 95 +12 +12 1012.1 953.8
21 10.06 З 3 н/о слаб. морось 9/9 700 м
[]
+12.8 +12.3 97 +11 +11 1011.4 953.1 0.7
22 10.06 З 4-5
{6}
н/о 10/10 120 м
[]
+12.6 +12.2 97 +11 +11 1011.9 953.5
23 10.06 З 4-6
{8}
н/о 9/9 210 м
[]
+11.8 +11.1 95 +10 +10 1012.0 953.4
00 11.06 З 5 н/о 9/9 210 м
[]
+11.4 +10.7 95 +9 +9 1011.9 953.2 0.0
01 11.06 З 4-6
{8}
н/о слаб. дождь 10/10 300 м
[]
+11.2 +10.7 97 +9 +9 1012.2 953.5
02 11.06 З 3-5
{8}
н/о слаб. дождь 10/10 150 м
[]
+11.1 +10.7 97 +9 +9 1012.6 953.8
03 11.06 З 3 н/о слаб. дождь 9/9 90 м
[]
+11.0 +10.6 97 +9 +9 1012.5 953.7 1
04 11.06 З 2-3
{5}
н/о слаб. дождь 9/9 150 м
[]
+10.8 +10.4 97 +9 +9 1013.0 954.1
05 11.06 ЮЗ 3-4
{4}
н/о слаб. дождь {морось} 10/10 120 м
[]
+10.8 +10.2 96 +9 +9 1012.6 953.8
06 11.06 СЗ 2 н/о {дождь, морось} 9/9 50 м
[]
+11.1 +10.5 96 +10 +10 1012.2 953.4 +10.8 +17.1 0.5
07 11.06 З 3-5
{5}
н/о 9/9 120 м
[]
+11.7 +10.4 92 +10 +10 1011.9 953.3
08 11.06 СЗ 3-4
{6}
н/о 3/3 270 м
[]
+12.7 +9.1 79 +11 +17 1011.5 953.1
09 11.06 В 2 н/о 3/0 2000 м
[]
+13.9 +8.0 68 +13 +25 опасность
простуды
1011.6 953.4 0.0
10 11.06 С 1-2
{4}
н/о 1/1 800 м
[]
+15.2 +8.3 63 +16 +33 опасность
простуды
1011.7 953.7
11 11.06 ЮВ 1-2
{4}
н/о 8/8 1170 м
[]
+15.6 +7.7 59 +16 +20 1011.4 953.5
12 11.06 З 1-2
{6}
н/о 10/10 1170 м
[]
+16.2 +8.5 60 +17 +17 1011.4 953.6
13 11.06 С 2-3
{3}
н/о 9/9 1080 м
[]
+16.3 +8.1 58 +16 +18 1011.0 953.3
14 11.06 СЗ 2-3
{4}
н/о 10/10 1170 м
[]
+16.4 +8.7 60 +17 +17 1011.1 953.4
15 11.06 С 1-1
{4}
н/о 10/10 1260 м
[]
+16.1 +9.6 65 +17 +17 1011.2 953.5
16 11.06 СВ 2-3
{3}
н/о слаб. морось 4/4 1500 м
[]
+16.7 +10.3 66 +17 +21 1010.5 952.9
17 11.06 СВ 3-3
{5}
н/о 9/9 700 м
[]
+16.0 +10.9 72 +16 +16 1010.6 952.9
18 11.06 СВ 2 н/о 10/10 1470 м
[]
+15.5 +11.1 75 +15 +15 1010.9 953.1 +11.0 +17.7 0.0
19 11.06 В 1-2
{4}
н/о 9/9 1500 м
[]
+15.6 +10.4 71 +16 +16 1011.2 953.4
20 11.06 СВ 1-1
{2}
н/о 9/9 1020 м
[]
+14.9 +10.5 75 +15 +15 1010.9 953.0
21 11.06 СВ 2-3
{4}
н/о 6/0
[]
+14.2 +10.1 76 +14 +14 1010.8 952.7
22 11.06 В 2-2
{5}
н/о 4/0
[]
+14.1 +10.3 78 +14 +14 1010.0 952.0
23 11.06 З 2-3
{3}
н/о 3/3 900 м
[]
+12.3 +9.9 85 +11 +11 1010.5 952.1
00 12.06 З 1-2
{5}
н/о 10/10 1170 м
[]
+12.3 +10.4 88 +12 +12 1010.6 952.2
01 12.06 З 1-2
{2}
н/о 10/10 800 м
[]
+12.7 +10.5 86 +13 +13 1010.4 952.1
02 12.06 З 2-5
{5}
н/о 9/9 800 м
[]
+12.5 +10.6 88 +12 +12 1009.9 951.6
03 12.06 С 2-2
{5}
н/о 9/0
[]
+11.7 +10.6 93 +10 +10 1009.1 950.6 0.0
04 12.06 ЮЗ 2-3
{3}
н/о 9/9 870 м
[]
+11.1 +10.5 96 +10 +10 1008.8 950.2
05 12.06 З 2-3
{3}
н/о 9/9 400 м
[]
+11.8 +10.9 94 +11 +11 1008.5 950.1
06 12.06 З 2 н/о 9/9 1500 м
[]
+13.8 +11.0 83 +13 +14 1007.5 949.6 +11.0 +15.9 0.0
07 12.06 З 5-7
{9}
н/о 10/10 180 м
[]
+12.0 +10.9 93 +9 +9 1008.5 950.1
08 12.06 З 7-11
{11}
н/о дождь 9/9 120 м
[]
+10.7 +10.4 98 +7 +7 1009.3 950.6
09 12.06 ЮЗ 5 н/о дождь 9/9 90 м
[]
+10.7 +10.0 95 +8 +8 1010.6 951.8 8
10 12.06 З 5-8
{8}
н/о слаб. морось {дождь} 9/9 210 м
[]
+11.3 +10.5 95 +8 +9 1010.5 951.9
11 12.06 ЮЗ 4-6
{9}
н/о 10/10 300 м
[]
+12.4 +10.7 89 +10 +10 1010.6 952.2
12 12.06 ЮЗ 5 н/о 8/8 500 м
[]
+14.0 +9.5 74 +12 +14 1010.7 952.6 3
13 12.06 ЮЗ 5-9
{11}
н/о 8/8 540 м
[]
+14.7 +9.6 71 +13 +15 1011.0 953.0
14 12.06 З 5-7
{9}
н/о 9/9 720 м
[]
+15.2 +9.7 70 +14 +15 1010.9 953.0
15 12.06 ЮЗ 5 н/о 6/6 1020 м
[]
+15.9 +8.7 62 +15 +17 1010.7 952.9
16 12.06 ЮЗ 5-9
{9}
н/о 8/8 1140 м
[]
+17.2 +8.3 56 +17 +17 1010.4 952.9
17 12.06 ЮЗ 4-7
{8}
н/о ясно +16.8 +7.3 53 +16 +19 1010.4 952.8
18 12.06 ЮЗ 5 н/о 3/3 1350 м
[]
+15.7 +7.6 59 +15 +15 1010.8 953.0 +10.6 +17.7
19 12.06 Ю 5-6
{7}
н/о ясно +14.5 +7.5 63 +13 +13 1011.4 953.3
20 12.06 Ю 4-5
{6}
н/о ясно +14.0 +7.8 66 +13 +13 1012.0 953.8
21 12.06 Ю 5-6
{7}
н/о ясно +13.1 +7.6 69 +11 +11 1012.4 954.0
22 12.06 Ю 4-7
{8}
н/о ясно +12.8 +7.2 69 +11 +11 1012.9 954.4
23 12.06 Ю 4-6
{8}
н/о ясно +12.7 +7.0 68 +11 +11 1013.1 954.5
00 13.06 Ю 4-5
{8}
н/о 3/3 1320 м
[]
+12.1 +6.9 70 +10 +10 1013.5 954.8
01 13.06 ЮЗ 5-6
{7}
н/о ясно +10.5 +6.6 77 +8 +8 1013.7 954.7
02 13.06 ЮЗ 4-5
{7}
н/о ясно +9.7 +6.2 79 +7 +7 1013.8 954.6
03 13.06 ЮЗ 5-5
{7}
н/о ясно +9.2 +5.9 80 +6 +6 1014.5 955.1
04 13.06 Ю 4-4
{5}
н/о ясно +9.3 +6.3 82 +6 +7 1014.8 955.5
05 13.06 Ю 6-7
{7}
н/о ясно +11.0 +6.7 75 +8 +8 1014.7 955.7
06 13.06 Ю 5 н/о ясно +12.2 +7.6 73 +10 +12 1014.4 955.7 +9.0 +15.9
07 13.06 ЮЗ 6-8
{8}
н/о ясно +13.3 +7.9 70 +11 +14 1014.4 955.9
08 13.06 ЮЗ 5-8
{9}
н/о ясно +14.5 +8.4 67 +13 +18 1014.2 956.0
09 13.06 Ю 7 н/о 3/3 1140 м
[]
+14.9 +6.7 58 +13 +16 1014.6 956.4
10 13.06 ЮЗ 6-9
{12}
н/о 8/8 1080 м
[]
+14.3 +6.8 61 +13 +14 1014.5 956.2
11 13.06 ЮЗ 7-10
{10}
н/о 8/8 1410 м
[]
+16.2 +8.1 59 +15 +16 1014.1 956.2
12 13.06 ЮЗ 7 н/о 8/8 1440 м
[]
+16.2 +6.1 51 +15 +16 1013.8 955.9
13 13.06 ЮЗ 6-9
{12}
н/о 1/1 1500 м
[]
+18.4 +7.0 47 +18 +24 1013.2 955.7
14 13.06 ЮЗ 7-11
{11}
н/о 5/0 2000 м
[]
+18.6 +7.3 48 +18 +21 1013.4 956.0
15 13.06 ЮЗ 6 н/о 6/6 1500 м
[]
+18.4 +7.3 48 +18 +20 1013.5 956.0
16 13.06 ЮЗ 6-9
{9}
н/о 5/5 1500 м
[]
+17.9 +6.5 47 +17 +19 1013.4 955.8
17 13.06 ЮЗ 5-9
{9}
н/о 8/8 1500 м
[]
+17.5 +6.2 47 +17 +17 1013.6 955.9
18 13.06 СЗ 2 н/о слаб. морось 9/9 400 м
[]
+12.3 +10.3 88 +11 +11 1015.1 956.4 +11.7 +19.4 0.1
19 13.06 ЮВ 3-5
{5}
н/о ясно +12.3 +10.5 89 +11 +11 1015.2 956.5
20 13.06 ЮВ 5-6
{6}
н/о ясно +11.5 +10.7 95 +9 +9 1015.1 956.3
21 13.06 ЮВ 4-5
{6}
н/о 4/0
[]
+11.7 +9.9 89 +9 +9 1015.3 956.5 0.1
22 13.06 ЮВ 5-7
{9}
н/о ясно +11.9 +8.8 81 +9 +9 1015.3 956.5
23 13.06 ЮВ 5-6
{8}
н/о ясно +12.9 +8.3 74 +11 +11 1015.3 956.7
00 14.06 ЮВ 3-4
{9}
н/о 8/0
[]
+12.6 +8.0 74 +11 +11 1015.0 956.3
01 14.06 ЮВ 5-5
{6}
н/о ясно +13.3 +7.1 66 +11 +11 1014.5 956.0
02 14.06 ЮВ 5-5
{5}
н/о 3/0
[]
+12.9 +7.1 68 +11 +11 1014.3 955.7
03 14.06 ЮВ 5-6
{6}
н/о ясно +13.2 +7.0 66 +11 +11 1014.1 955.6
04 14.06 ЮВ 6-7
{7}
н/о 5/0
[]
+13.5 +7.5 67 +11 +11 1014.3 955.8
05 14.06 ЮВ 5-7
{8}
н/о ясно +14.4 +8.3 67 +13 +13 1014.2 955.9
06 14.06 ЮВ 5 н/о ясно +15.9 +8.7 62 +15 +17 1014.1 956.1 +11.2 +15.9
07 14.06 ЮВ 4-6
{7}
н/о 1/0
[]
+16.8 +10.1 65 +16 +20 1014.4 956.6
08 14.06 ЮВ 4-6
{7}
н/о 9/0
[]
+17.5 +11.0 66 +17 +21 1015.4 957.7
09 14.06 ЮВ 5-7
{8}
н/о ясно +18.6 +10.9 61 +19 +26 1015.1 957.6
10 14.06 ЮЗ 3-7
{7}
н/о 4/0
[]
+21.6 +8.5 43 +23 +33 комфорт 1014.5 957.6
11 14.06 Ю 6-9
{9}
н/о 3/0
[]
+22.1 +8.4 41 +23 +29 комфорт 1014.4 957.6
12 14.06 Ю 8-12
{12}
н/о 1/0
[]
+22.8 +8.5 40 +24 +27 комфорт 1014.4 957.7
13 14.06 Ю 6-8
{12}
н/о 6/0
[]
+22.2 +8.2 41 +23 +28 комфорт 1014.1 957.3
14 14.06 Ю 5-7
{9}
н/о 9/0
[]
+21.4 +9.1 45 +23 +27 комфорт 1013.9 957.0
15 14.06 Ю 4-6
{12}
н/о 9/0
[]
+20.7 +10.6 52 +23 +26 комфорт 1013.5 956.5
16 14.06 ЮВ 5-8
{8}
н/о 10/0
[]
+19.6 +10.5 56 +21 +22 комфорт 1013.5 956.3
17 14.06 ЮВ 4-5
{7}
н/о 9/0
[]
+18.9 +11.6 63 +20 +21 1013.1 955.8
18 14.06 В 2 н/о слаб. дождь 8/8 1170 м
[]
+17.5 +12.0 70 +18 +18 1012.6 955.1 +16.0 +23.2 0.0
19 14.06 ЮВ 4-4
{4}
н/о {дождь, морось} 10/10 1380 м
[]
+16.8 +12.9 78 +16 +16 1012.5 954.9
20 14.06 ЮВ 3-4
{5}
н/о 10/0
[]
+16.0 +13.0 82 +16 +16 1012.3 954.5
21 14.06 ЮВ 4 н/о 10/10 1500 м
[]
+16.2 +12.8 80 +15 +15 1012.7 955.0 0.1
22 14.06 В 3-4
{6}
н/о 9/9 1350 м
[]
+15.1 +13.4 90 +14 +14 1012.3 954.4
23 14.06 Ю 1-2
{4}
н/о 5/0 2000 м
[]
+14.5 +13.1 91 +15 +15 1011.7 953.7
00 15.06 З 1-1
{6}
н/о ясно +14.8 +12.9 88 +15 +15 1010.8 952.9 0.7
01 15.06 СВ 2-2
{4}
н/о 5/0
[]
+14.4 +12.1 86 +14 +14 1009.9 952.0
02 15.06 З 2-3
{3}
н/о 4/0
[]
+13.4 +12.1 92 +13 +13 1009.5 951.4
03 15.06 З 5-8
{8}
н/о 1/1 <50 м
[]
+12.7 +12.4 98 +10 +10 1010.4 952.1 0.0
04 15.06 З 8-11
{11}
н/о 10/10 <50 м
[]
+13.5 +13.5 100 +11 +11 1010.9 952.8
05 15.06 З 6-9
{9}
н/о 10/10 120 м
[]
+13.9 +13.6 98 +12 +12 1011.2 953.1
06 15.06 З 3 н/о 8/8 100 м
[]
+14.6 +13.8 95 +14 +14 1011.5 953.5 +12.5 +17.8 0.0
07 15.06 З 7-10
{11}
н/о 10/10 210 м
[]
+15.0 +13.6 91 +13 +13 1012.7 954.7
08 15.06 З 7-11
{11}
н/о 9/9 240 м
[]
+15.8 +13.7 87 +14 +14 1012.9 955.1
09 15.06 З 6 н/о 8/8 420 м
[]
+16.4 +12.8 79 +15 +16 1014.0 956.2 0.0
10 15.06 З 6-9
{11}
н/о 6/6 540 м
[]
+18.0 +12.8 72 +17 +20 1014.2 956.7
11 15.06 З 6-9
{11}
н/о 4/4 660 м
[]
+17.9 +12.5 71 +17 +22 1014.7 957.2
12 15.06 З 7-11
{13}
н/о 3/3 1500 м
[]
+19.5 +12.1 62 +20 +24 1014.9 957.6
13 15.06 З 6-9
{11}
н/о 3/3 1110 м
[]
+20.2 +11.5 57 +22 +26 комфорт 1014.7 957.6
14 15.06 З 5-7
{11}
н/о 8/8 1200 м
[]
+20.5 +11.6 57 +22 +24 комфорт 1014.9 957.8
15 15.06 З 4-7
{11}
н/о 1/1 1410 м
[]
+20.3 +9.6 50 +22 +28 комфорт 1015.2 958.0
16 15.06 З 4-6
{8}
н/о 5/5 1470 м
[]
+20.5 +9.3 49 +22 +24 комфорт 1014.9 957.8
17 15.06 З 4-6
{8}
н/о 3/3 1500 м
[]
+19.5 +9.4 52 +20 +22 1015.1 957.8
18 15.06 З 3 н/о 9/9 1380 м
[]
+19.5 +10.5 56 +21 +21 комфорт 1015.2 957.9 +14.6 +21.3
19 15.06 З 3-4
{5}
н/о 1/0
[]
+18.2 +10.7 62 +19 +19 1015.6 958.0
20 15.06 З 3-4
{4}
н/о ясно +16.5 +10.2 66 +16 +16 1016.2 958.3
21 15.06 ЮЗ 3-4
{5}
н/о 4/0 2000 м
[]
+15.7 +10.4 71 +15 +15 1016.8 958.7
22 15.06 З 4-5
{5}
н/о 9/0
[]
+15.7 +10.6 72 +15 +15 1017.9 959.7
23 15.06 З 3-4
{5}
н/о 10/0 2000 м
[]
+15.4 +11.0 75 +15 +15 1018.6 960.3
00 16.06 З 3-4
{5}
н/о 10/0 2000 м
[]
+14.9 +10.4 74 +14 +14 1018.7 960.3
01 16.06 З 4-6
{6}
н/о 10/0 2000 м
[]
+14.7 +9.8 72 +14 +14 1019.0 960.5
02 16.06 З 4-5
{5}
н/о 10/0 2000 м
[]
+14.2 +9.8 75 +13 +13 1019.3 960.7
03 16.06 З 3 н/о 10/10 720 м
[]
+13.8 +9.8 77 +13 +13 1019.6 960.9 0.0
04 16.06 ЮЗ 2-4
{4}
н/о слаб. дождь {морось} 9/9 1170 м
[]
+12.9 +10.4 85 +12 +12 1020.2 961.3
05 16.06 ЮЗ 3-4
{4}
н/о 9/0 2000 м
[]
+12.9 +10.2 84 +12 +12 1020.4 961.5
06 16.06 З 3 н/о 9/0
[]
+13.3 +9.9 80 +12 +14 1020.6 961.8 +12.8 +19.6 0.1
07 16.06 З 3-4
{4}
н/о 4/0
[]
+15.3 +9.5 68 +15 +19 1020.5 962.1
08 16.06 З 3-4
{6}
н/о ясно +16.4 +9.6 64 +16 +24 1020.6 962.4
09 16.06 З 4 н/о 4/4 900 м
[]
+16.6 +9.4 62 +16 +21 1020.8 962.6
10 16.06 З 3-6
{7}
н/о 9/9 1500 м
[]
+16.5 +8.8 60 +16 +18 1021.3 963.0
11 16.06 ЮЗ 3-6
{6}
н/о 9/9 1500 м
[]
+17.7 +8.3 54 +18 +19 1021.0 963.0
12 16.06 З 4-6
{7}
н/о 9/9 1320 м
[]
+17.6 +8.9 57 +17 +19 1021.0 963.0
13 16.06 З 4-5
{6}
н/о 10/0 2000 м
[]
+17.9 +9.5 58 +18 +23 1021.1 963.1

 

Местоположение метеостанции Аэропорт Франкфурт-Хан (Германия): широта 49.95 долгота 7.27 высота над уровнем моря 503 м.

В архиве по умолчанию представлена погода в Аэропорту Франкфурт-Хан за последнюю неделю. Архивные данные за месяц целиком и за предыдущие месяцы, начиная с января 2011 года, Вы можете получить, выбрав интересующий диапазон дат из раскрывающегося списка и нажав кнопку "Ввод!".


*Определитесь, кто Вы:
робот инопланетянин человек

Внимание! Время в таблицах - всемирное. Для получения местного времени необходимо прибавить поправку, которая равна 1 ч.

Смотрите также архив погоды в соседних городах и на ближайших метеорологических станциях:

Погода в Дойзельбахе (Германия) (25 км)
Погода в Идар-Оберштайне (Германия) (28 км)
Погода на Базе ВВС Buechel (Германия) (28 км)
Погода в Трире (Германия) (48 км)
Погода в Гайзенхайме (Германия) (49 км)
Погода в Кобленце (Германия) (52 км)
Погода в Андернахе (Германия) (54 км)
Погода в Толае (Германия) (55 км)
Погода в Нюрбург-Барвайлере (Германия) (55 км)
Погода в Саарбрюккене (Германия) (82 км)

Пояснения к столбцам:

Ветер - указаны скорость ветра в м/с - средняя за 10 мин, порывы в срок и между сроками (в фигурных скобках) и направление, откуда дует ветер: С - северный, СВ - северо-восточный, В - восточный, ЮВ - юго-восточный, Ю - южный, ЮЗ - юго-западный, З - западный, СЗ - северо-западный.
Видимость - горизонтальная дальность видимости в метрах или километрах. При видимости от 1 до 10 км при отсутствии осадков обычно наблюдается дымка, при ухудшении видимости до 1 км и менее - туман. В сухую погоду видимость может ухудшаться дымом, пылью или мглою.
Явления - указаны атмосферные явления, наблюдавшиеся в срок или в последний час перед сроком; фигурными скобками обозначены явления, наблюдавшиеся между сроками (за 1-3 часа до срока); квадратными скобками обозначены град или гололедные отложения с указанием их диаметра в мм.
Облачность - указаны через наклонную черту общая и нижняя облачность в баллах и высота нижней границы облаков в метрах; квадратными скобками обозначены формы облаков: Ci - перистые, Cs - перисто-слоистые, Cc - перисто-кучевые, Ac - высококучевые, As - высокослоистые, Sc - слоисто-кучевые, Ns - слоисто-дождевые, Cu - кучевые, Cb - кучево-дождевые. Подробнее классификацию облаков см. в Атласе облаков (PDF).
T - Температура воздуха - температура, измеренная на высоте 2 м над землей.
Td - Температура точки росы - температура, при понижении до которой содержащийся в воздухе водяной пар достигнет насыщения.
f - Относительная влажность воздуха - влажноcть воздуха, измеренная на высоте 2 м над землей.
Te - Эффективная температура - температура, которую ощущает одетый по сезону человек в тени. Характеристика душности погоды. При расчете учитывается влияние влажности воздуха и скорости ветра на теплоощущения человека.
Tes - Эффективная температура на солнце - температура, которую ощущает человек, с поправкой на солнечный нагрев. Характеристика знойности погоды. Зависит от высоты солнца над горизонтом, облачности и скорости ветра. Ночью, в пасмурную погоду, а также при ветре 12 м/с и более поправка равна нулю.
P - Атмосферное давление - приведенное к уровню моря атмосферное давление.
Po - Атмосферное давление - измеренное на уровне метеостанции атмосферное давление.
Tmin - Минимальная температура - минимум температуры воздуха на высоте 2 м над землей.
Tmax - Максимальная температура - максимум температуры воздуха на высоте 2 м над землей.
R - Количество осадков - Количество выпавших осадков за период времени, мм. При наведении курсора мыши на число - период времени, за который выпало указанное количество осадков.
R24 - Количество осадков - Количество выпавших осадков за 24 часа, мм.
S - Снежный покров - Высота снежного покрова, см. При наведении курсора мыши на число - состояние снежного покрова и степень покрытия местности в баллах.